Location: Boiro
(42.6475°N, 8.8834°W)
Time: 17:55:02
(UTC+01:00)

Tiros 1 - Pass Details

Date: 07 December 2021
Orbit: 630 x 663 km, 48.4° (Epoch: 20 January)

Event Time Altitude Azimuth Distance (km) Brightness Sun altitude
Rises 01:42:27 0° 291° (WNW) 2,957 - -69.7°
Reaches altitude 10° 01:45:02 10° 279° (W) 2,050 - -69.6°
Maximum altitude 01:49:01 27° 222° (SW) 1,235 - -69.4°
Drops below altitude 10° 01:53:02 10° 164° (SSE) 2,058 - -69.2°
Sets 01:55:39 0° 153° (SSE) 2,971 - -69.1°
